Location: Palomar Mountain Lodge
(33.3110°N, 116.8495°W)
Time: 19:25:20
(UTC-07:00)

NOSS 2-3 (D) - Pass Details

Date: 14 June 2018
Orbit: 622 x 1590 km, 63.4° (Epoch: 10 October)

Event Time Altitude Azimuth Distance (km) Brightness Sun altitude
Exits shadow 21:58:12 - 214° (SW) 2,687 6.7 -20.4°
Reaches altitude 10° 21:59:56 10° 216° (SW) 1,983 6.0 -20.7°
Maximum altitude 22:04:17 72° 302° (WNW) 688 3.8 -21.3°
Drops below altitude 10° 22:09:11 10° 26° (NNE) 2,224 6.7 -21.9°
Sets 22:11:46 0° 29° (NNE) 3,267 7.6 -22.3°
